Location: Daybis Observatory
(33.4273°N, 88.8061°W)
Time: 05:47:36
(UTC-06:00)

Daily predictions for brighter satellites

Satellite Brightness Start Highest point End
(mag) Time Altitude Azimuth Time Altitude Azimuth Time Altitude Azimuth
ATLAS CENTAUR R/B 3.9 03:21:01 62° NE 03:21:08 62° NE 03:36:59 10° SE
CZ-4C R/B 3.9 03:27:47 28° ENE 03:27:47 28° ENE 03:30:37 10° NE
USA 234 3.4 03:38:56 10° NE 03:45:09 68° ESE 03:45:09 68° ESE
ATLAS 3B R/B 4.1 03:51:16 12° S 03:57:40 38° ESE 04:04:23 10° NE
Cosmos 1452 Rocket 4.4 04:07:57 41° N 04:07:57 41° N 04:11:23 10° NNE
ATLAS 5 CENTAUR R/B 4.3 04:09:45 12° N 04:09:45 12° N 04:10:16 10° N
Cosmos 1833 4.2 04:11:12 75° SE 04:11:12 75° SE 04:16:21 10° SSE
Cosmos 1943 Rocket 3.9 04:15:06 19° N 04:15:06 19° N 04:16:56 10° N
Nadezhda 2 Rocket 4.3 04:08:50 10° N 04:14:58 85° W 04:21:07 10° S
Cosmos 1782 Rocket 3.9 04:22:30 10° N 04:26:57 65° E 04:31:19 10° SSE
Cosmos 676 Rocket 3.9 04:27:56 48° NNW 04:29:27 81° WSW 04:34:47 10° SSE
Cosmos 1417 Rocket 4.3 04:24:15 10° S 04:30:26 85° W 04:36:36 10° N
ADEOS II 3.3 04:25:59 10° N 04:28:37 27° NNW 04:28:37 27° NNW
CZ-4B R/B 4.2 04:28:42 10° N 04:32:06 31° NNW 04:32:06 31° NNW
Cosmos 1140 Rocket 3.8 04:29:20 10° N 04:34:33 66° ENE 04:39:44 10° SSE
Okean-O 2.5 04:42:51 10° N 04:47:15 63° WNW 04:48:07 51° SW
Tiangong 1 3.6 04:48:10 13° NNE 04:48:10 13° NNE 04:49:03 10° NNE
USA 142 4.5 04:48:42 35° SW 04:49:57 48° SSE 04:57:08 10° E
CZ-4B R/B 3.9 04:49:09 10° N 04:53:09 56° WNW 04:53:53 48° WSW
Cosmos 1606 3.3 04:50:05 10° S 04:53:52 58° E 04:57:42 10° NNE
Lacrosse 5 4.0 04:55:46 12° NNW 04:55:46 12° NNW 04:57:25 10° N
Okean 2 Rocket 2.9 04:54:07 10° N 04:58:30 72° W 05:02:52 10° S
Cosmos 1607 3.8 04:54:11 14° SSW 04:59:27 81° WNW 05:05:38 10° NNE
Delta 2 Rocket 3.7 05:00:43 38° W 05:02:28 71° N 05:07:41 10° ENE
Cosmos 1782 2.6 04:58:50 10° S 05:02:46 75° W 05:06:45 10° N
SL-08 R/B 4.4 05:01:26 10° NNW 05:07:42 68° W 05:13:58 10° S
Meteor 1-14 Rocket 4.4 05:04:20 10° NNW 05:09:49 46° W 05:15:09 10° SSW
Cosmos 1850 Rocket 4.0 05:06:57 10° NNW 05:12:18 88° WSW 05:17:34 10° SSE
Gblst 52 Del rocket 4.2 05:09:38 19° SW 05:13:43 77° NW 05:19:57 10° NE
ISS 0.0 05:12:58 10° SE 05:13:47 11° SE 05:14:36 10° ESE
Cosmos 2278 4.2 05:08:21 10° S 05:13:54 64° ESE 05:19:29 10° NNE
CZ-4C R/B 3.4 05:13:00 21° WNW 05:14:02 22° NW 05:18:28 10° N
Meteor 2-6 Rocket 4.0 05:09:23 10° S 05:14:45 84° W 05:20:11 10° N
GEOS 3 Rocket 3.7 05:10:40 10° SSE 05:15:35 51° WSW 05:20:33 10° NW
Cosmos 2151 Rocket 3.6 05:13:53 10° N 05:18:24 84° E 05:22:51 10° S
S3M 4.3 05:13:33 10° SSW 05:19:32 43° W 05:25:29 10° N
Meteor 2-11 Rocket 4.4 05:13:38 10° SSW 05:19:42 70° W 05:25:50 10° N
Ariane Rocket 3.6 05:15:53 10° NNE 05:20:55 61° ESE 05:25:55 10° S
COSMO-SKYMED 1 2.5 05:20:16 10° S 05:24:35 79° WSW 05:28:56 10° NNW
Cosmos 1553 Rocket 4.5 05:19:58 10° SW 05:25:35 36° WNW 05:31:19 10° NNW
Cosmos 2219 3.3 05:20:18 10° NNW 05:25:48 53° WSW 05:31:13 10° S
Meteor 1-31 Rocket 4.2 05:23:17 10° NNW 05:25:37 19° WNW 05:25:37 19° WNW
USA 238 DEB 3.7 05:20:49 10° SSW 05:27:50 84° WNW 05:34:53 10° NNE
USA 238 3.7 05:20:54 10° SSW 05:27:55 85° WNW 05:34:59 10° NNE
USA 234 4.1 05:22:28 10° NNE 05:28:04 32° NW 05:32:32 15° W
Cosmos 2227 Rocket 3.4 05:23:01 10° N 05:28:26 45° ENE 05:33:49 10° SE
Cosmos 1633 3.1 05:28:08 10° N 05:31:43 61° E 05:35:16 10° SSE
Cosmos 1656 4.5 05:26:30 10° S 05:32:02 56° ESE 05:37:36 10° NNE
NOAA 6 4.5 05:28:28 10° N 05:33:14 39° WNW 05:37:56 10° SW
Cosmos 1331 Rocket 3.9 05:32:56 10° SSW 05:38:05 77° WNW 05:43:18 10° NNE
IDEFIX/ARIANE 42P 3.6 05:36:32 10° NNE 05:41:35 50° E 05:46:36 10° S
DMSP B5D1-3 4.4 05:36:51 10° S 05:41:55 73° WSW 05:47:01 10° NNW
Thor Agena Rocket 4.5 05:43:01 10° SSW 05:47:17 26° W 05:51:34 10° NW
ATLAS 3B R/B 3.3 05:41:14 10° WSW 05:48:19 41° NW 05:55:13 10° NNE
Cosmos 1110 Rocket 4.2 05:48:10 10° SW 05:53:06 46° WNW 05:58:05 10° N
Cosmos 1697 Rocket 3.4 05:48:55 10° S 05:54:28 62° ESE 06:00:04 10° NNE
Meteor 1-11 Rocket 3.8 05:50:10 10° N 05:56:07 80° W 06:01:55 10° S
NOSS 3-2 (C) 4.3 05:52:25 10° S 05:58:10 54° ESE 06:04:20 10° NE
CZ-4 R/B 1.9 05:55:31 10° NNE 05:59:38 67° E 06:03:39 10° S
YAOGAN 1 4.1 05:55:34 10° NNE 05:59:42 43° E 06:03:48 10° S
Cosmos 1980 Rocket 3.9 05:55:38 10° S 06:00:45 38° ESE 06:05:54 10° NE
Cosmos 1709 Rocket 4.0 05:55:30 10° NNW 06:01:33 65° W 06:07:37 10° S
Meteor 1-28 Rocket 3.9 05:59:29 10° SSW 06:02:49 31° W 06:06:10 10° NNW
CZ-2C R/B 2.6 06:00:49 10° NNE 06:05:48 87° ESE 06:10:56 10° SSW
COSMOS 2455 2.9 06:00:46 10° SSW 06:06:44 68° WNW 06:12:46 10° NNE
